(183752) = 2003 YB176

Discovered at Socorro on 2003-12-29 by LINEAR.

Orbit

Orbit type: Main Belt

Note: WebGL enabled browser required.

epoch2023-09-13.0
epoch JD2460200.5
perihelion date2021-03-24.98864
perihelion JD2459298.48864
argument of perihelion (°)58.51883
ascending node (°)23.12587
inclination (°)6.41473
eccentricity0.1217182
perihelion distance (AU)2.0128284
Tisserand w.r.t. Jupiter3.6
ΔV w.r.t. Earth (km/sec)9.0
semimajor axis (AU)2.2917795
mean anomaly (°)256.24571
mean daily motion (°/day)0.28408260
aphelion distance (AU)2.571
period (years)3.47
P-vector [x]0.14740827
P-vector [y]0.86533866
P-vector [z]0.47901962
Q-vector [x]-0.98810189
Q-vector [y]0.10735368
Q-vector [z]0.11013557
absolute magnitude17.29
phase slope0.15
uncertainty0
referenceMPO 778223
observations used477
oppositions13
arc length (days)8216
first opposition used2001
last opposition used2023
residual rms (arc-secs)0.77
perturbers coarse indicatorM-v
perturbers precise indicator003Ek
first observation date used2001-04-16.0
last observation date used2023-10-14.0
computer nameMPCLINUX
JD of orbit computation2456670.814716
perihelion JD uncertainty (days)1.1138E-04
argument of perihelion uncertainty (°)4.7113E-05
ascending node uncertainty (°)3.3983E-05
inclination uncertainty (°)7.0107E-06
eccentricity uncertainty 5.0760E-08
perihelion distance uncertainty (AU)1.2465E-07
Minimum Orbit Intersection Distances (in AU)
for orbit epoch: 2460200.5, reference: E2023-TP1
Mercury1.70521
Venus1.29717
Earth1.03557
Mars0.4497
Jupiter2.64212
Saturn7.05427
Uranus16.1545
Neptune27.6534

Observations

492 total observations over interval: 2001 04 16.149980 – 2023 10 14.262773
These data are available for download (format description).

Date (UT) J2000 RA J2000 Dec Magn Location Ref
2001 04 16.149980 11 45 09.245 +04 43 44.30 20.76 V 645 – Apache Point-Sloan Digital Sky Survey MPS 182459
2001 04 16.153452 11 45 09.105 +04 43 44.34 21.56   645 – Apache Point-Sloan Digital Sky Survey MPS 182459
2003 12 03.32645 07 05 31.10 +33 06 33.9 19.6   704 – Lincoln Laboratory ETS, New Mexico MPS 125710
2003 12 03.33996 07 05 30.67 +33 06 39.8 20.3   704 – Lincoln Laboratory ETS, New Mexico MPS 125710
2003 12 03.35491 07 05 30.16 +33 06 44.1 19.8   704 – Lincoln Laboratory ETS, New Mexico MPS 125710
2003 12 03.38074 07 05 29.21 +33 06 54.5 19.9   704 – Lincoln Laboratory ETS, New Mexico MPS 125710
2003 12 17.32964 06 54 15.52 +34 23 14.6 19.1   704 – Lincoln Laboratory ETS, New Mexico MPS 125710
2003 12 17.35670 06 54 13.82 +34 23 22.1 19.8   704 – Lincoln Laboratory ETS, New Mexico MPS 125710
2003 12 17.38262 06 54 11.98 +34 23 29.9 19.8   704 – Lincoln Laboratory ETS, New Mexico MPS 125710
2003 12 29.30271 06 40 11.51 +35 06 39.2 18.8   704 – Lincoln Laboratory ETS, New Mexico MPS 109919
2003 12 29.31575 06 40 10.51 +35 06 40.9 19.4   704 – Lincoln Laboratory ETS, New Mexico MPS 109919
2003 12 29.32936 06 40 09.42 +35 06 43.6 19.0   704 – Lincoln Laboratory ETS, New Mexico MPS 109919
2003 12 29.34352 06 40 08.30 +35 06 45.2 19.1   704 – Lincoln Laboratory ETS, New Mexico MPS 109919
2003 12 29.35826 06 40 07.14 +35 06 46.6 19.0   704 – Lincoln Laboratory ETS, New Mexico MPS 109919
2004 01 03.30842 06 33 57.28 +35 15 31.8 18.5   704 – Lincoln Laboratory ETS, New Mexico MPS 109919
2004 01 03.32122 06 33 56.24 +35 15 34.6 19.3   704 – Lincoln Laboratory ETS, New Mexico MPS 109919
2004 01 03.33393 06 33 55.32 +35 15 33.9 19.1   704 – Lincoln Laboratory ETS, New Mexico MPS 109919
2004 01 03.34672 06 33 54.23 +35 15 35.1 19.2   704 – Lincoln Laboratory ETS, New Mexico MPS 109919
2004 01 16.08508 06 19 37.31 +35 11 59.3 20.3 V 691 – Steward Observatory, Kitt Peak-Spacewatch MPS 125710
2004 01 16.11235 06 19 35.70 +35 11 57.1 20.4 V 691 – Steward Observatory, Kitt Peak-Spacewatch MPS 125710
2004 01 16.13972 06 19 34.06 +35 11 54.4 20.9 V 691 – Steward Observatory, Kitt Peak-Spacewatch MPS 125710
2006 08 28.33419 00 56 07.69 +00 51 26.4 21.0   705 – Apache Point MPS 192148
2006 08 28.33502 00 56 07.67 +00 51 26.4 20.4 V 705 – Apache Point MPS 192148
2006 09 17.34983 00 43 12.78 +00 13 24.6   705 – Apache Point MPC 61917
2006 09 17.35315 00 43 12.82 +00 13 24.9 21.3 V 705 – Apache Point MPS 192148
2006 09 18.30222 00 42 20.87 +00 10 45.7 19.4 R 699 – Lowell Observatory-LONEOS MPS 179309
2006 09 18.32416 00 42 19.66 +00 10 41.0   699 – Lowell Observatory-LONEOS MPS 179309
2006 09 18.34607 00 42 18.39 +00 10 37.8   699 – Lowell Observatory-LONEOS MPS 179309
2006 09 18.36802 00 42 17.12 +00 10 34.2   699 – Lowell Observatory-LONEOS MPS 179309
2006 09 20.22315 00 40 32.91 +00 05 15.6   691 – Steward Observatory, Kitt Peak-Spacewatch MPS 179309
2006 09 20.24057 00 40 31.87 +00 05 12.1   691 – Steward Observatory, Kitt Peak-Spacewatch MPS 179309
2006 09 20.25799 00 40 30.86 +00 05 09.1   691 – Steward Observatory, Kitt Peak-Spacewatch MPS 179309
2006 09 26.22500 00 34 33.05 -00 12 30.6 19.7   704 – Lincoln Laboratory ETS, New Mexico MPS 181012
2006 09 26.24884 00 34 31.60 -00 12 35.5 19.8   704 – Lincoln Laboratory ETS, New Mexico MPS 181012
2006 09 26.26073 00 34 30.85 -00 12 37.7 20.2   704 – Lincoln Laboratory ETS, New Mexico MPS 181012
2006 09 30.21267 00 30 22.47 -00 24 14.7 19.1 R G92 – Jarnac Observatory, Vail MPS 182650
2006 09 30.24602 00 30 20.33 -00 24 20.4 19.5 R G92 – Jarnac Observatory, Vail MPS 182650
2006 09 30.27972 00 30 18.10 -00 24 26.5 19.2 R G92 – Jarnac Observatory, Vail MPS 182650
2006 10 17.18933 00 13 11.53 -01 02 05.0 19.2 V 703 – Catalina Sky Survey MPS 182920
2006 10 17.19626 00 13 11.10 -01 02 04.8 19.3 V 703 – Catalina Sky Survey MPS 182920
2006 10 17.20324 00 13 10.74 -01 02 05.7 18.7 V 703 – Catalina Sky Survey MPS 182920
2006 10 17.21021 00 13 10.41 -01 02 06.9 19.3 V 703 – Catalina Sky Survey MPS 182920
2006 10 19.23187 00 11 23.76 -01 04 26.4 19.3 R 695 – Kitt Peak MPS 190458
2006 10 19.32416 00 11 18.80 -01 04 31.7   695 – Kitt Peak MPS 190458
2006 10 27.32799 00 05 18.30 -01 07 11.9 21.0   705 – Apache Point MPS 192148
2006 10 27.32882 00 05 18.26 -01 07 11.8 20.3 V 705 – Apache Point MPS 192148
2006 10 29.23266 00 04 08.85 -01 06 13.0 21.3   705 – Apache Point MPS 192148
2006 10 29.23350 00 04 08.82 -01 06 12.9 20.4 V 705 – Apache Point MPS 192148
2006 11 01.24603 00 02 32.51 -01 03 20.4 20.9   705 – Apache Point MPS 192148
2006 11 01.24686 00 02 32.49 -01 03 20.4 20.3 V 705 – Apache Point MPS 192148
2006 12 12.12970 00 09 39.34 +02 07 41.1 20.9 V G96 – Mt. Lemmon Survey MPS 192148
2006 12 12.14240 00 09 39.85 +02 07 47.2 21.0 V G96 – Mt. Lemmon Survey MPS 192148
2006 12 12.15257 00 09 40.35 +02 07 52.1 21.1 V G96 – Mt. Lemmon Survey MPS 192148
2006 12 12.16280 00 09 40.78 +02 07 56.2 20.9 V G96 – Mt. Lemmon Survey MPS 192148
2008 02 28.37914 13 02 23.95 -02 17 31.4 20.4 V 691 – Steward Observatory, Kitt Peak-Spacewatch MPS 239391
2008 02 28.39675 13 02 23.34 -02 17 29.5 20.4 V 691 – Steward Observatory, Kitt Peak-Spacewatch MPS 239391
2008 02 28.41436 13 02 22.71 -02 17 27.6 20.3 V 691 – Steward Observatory, Kitt Peak-Spacewatch MPS 239391
2008 03 03.33431 12 59 59.87 -02 09 42.6 20.0 V 691 – Steward Observatory, Kitt Peak-Spacewatch MPS 240695
2008 03 03.35196 12 59 59.10 -02 09 40.3 20.3 V 691 – Steward Observatory, Kitt Peak-Spacewatch MPS 240695
2008 03 03.36960 12 59 58.39 -02 09 37.7 20.5 V 691 – Steward Observatory, Kitt Peak-Spacewatch MPS 240695
2008 03 26.33543 12 39 03.70 -00 57 27.0 19.8 V G96 – Mt. Lemmon Survey MPS 244004
2008 03 26.34310 12 39 03.24 -00 57 25.4 19.9 V G96 – Mt. Lemmon Survey MPS 244004
2008 03 26.35081 12 39 02.70 -00 57 23.9 20.0 V G96 – Mt. Lemmon Survey MPS 244004
2008 03 26.35849 12 39 02.23 -00 57 21.9 20.2 V G96 – Mt. Lemmon Survey MPS 244004
2008 04 28.16969 12 10 00.55 +00 14 20.1 20.9 V G96 – Mt. Lemmon Survey MPS 248881
2008 04 28.17517 12 10 00.37 +00 14 19.9 20.7 V G96 – Mt. Lemmon Survey MPS 248881
2008 04 28.18066 12 10 00.19 +00 14 20.1 20.6 V G96 – Mt. Lemmon Survey MPS 248881
2008 04 28.18617 12 10 00.01 +00 14 20.5 20.4 V G96 – Mt. Lemmon Survey MPS 248881
2010 12 09.40733 08 02 34.33 +31 26 43.4 19.9 V 703 – Catalina Sky Survey MPS 362343
2010 12 09.41475 08 02 34.18 +31 26 45.1 20.7 V 703 – Catalina Sky Survey MPS 362343
2010 12 09.42222 08 02 34.11 +31 26 49.0 20.5 V 703 – Catalina Sky Survey MPS 362343
2010 12 09.42965 08 02 33.86 +31 26 49.5 20.5 V 703 – Catalina Sky Survey MPS 362343
2011 01 08.29923 07 37 26.97 +34 00 05.5 19.2 V G96 – Mt. Lemmon Survey MPS 366637
2011 01 08.30037 07 37 26.86 +34 00 05.9 19.3 V G96 – Mt. Lemmon Survey MPS 366637
2011 01 08.30670 07 37 26.40 +34 00 07.0 19.2 V G96 – Mt. Lemmon Survey MPS 366637
2011 01 08.30786 07 37 26.32 +34 00 07.3 19.2 V G96 – Mt. Lemmon Survey MPS 366637
2011 01 08.31420 07 37 25.78 +34 00 08.3 19.3 V G96 – Mt. Lemmon Survey MPS 366637
2011 01 08.31537 07 37 25.71 +34 00 08.7 19.2 V G96 – Mt. Lemmon Survey MPS 366637
2011 01 08.32178 07 37 25.24 +34 00 09.9 19.3 V G96 – Mt. Lemmon Survey MPS 366637
2011 01 08.32296 07 37 25.14 +34 00 10.2 19.2 V G96 – Mt. Lemmon Survey MPS 366637
2011 01 28.32266 07 14 27.96 +34 15 12.8 19.6 V 703 – Catalina Sky Survey MPS 368319
2011 01 28.32919 07 14 27.63 +34 15 12.8 19.7 V 703 – Catalina Sky Survey MPS 368319
2011 01 28.33579 07 14 27.09 +34 15 12.8 19.9 V 703 – Catalina Sky Survey MPS 368319
2011 01 28.34241 07 14 26.70 +34 15 11.2 19.6 V 703 – Catalina Sky Survey MPS 368319
2011 04 26.26360 08 05 46.967 +26 08 59.60 21.7 w F51 – Pan-STARRS 1, Haleakala MPS 380953
2011 04 26.26842 08 05 47.410 +26 08 57.70 21.4 w F51 – Pan-STARRS 1, Haleakala MPS 380953
2011 04 26.27372 08 05 47.896 +26 08 55.27 21.3 w F51 – Pan-STARRS 1, Haleakala MPS 380953
2012 06 12.35176 16 16 08.100 -29 25 26.39 20.6 w F51 – Pan-STARRS 1, Haleakala MPS 427115
2012 06 12.36571 16 16 07.187 -29 25 24.85 20.7 w F51 – Pan-STARRS 1, Haleakala MPS 427115
2012 06 12.37976 16 16 06.250 -29 25 23.25 20.6 w F51 – Pan-STARRS 1, Haleakala MPS 427115
